Location: Newark
(40.3500°N, 15.2333°E)
Time: 16:40:42
(UTC+00:00)

Altair - Visible Passes

Search period start: 24 January 2020 00:00
Search period end: 03 February 2020 00:00
Orbit: 1502 x 1682 km, 47.2° (Epoch: 23 January)

Date Brightness Start Highest point End Pass type
(mag) Time Alt. Az. Time Alt. Az. Time Alt. Az.
24 Jan 10.4 16:40:08 10° W 16:44:24 14° WSW 16:48:36 10° SSW visible
25 Jan 9.5 05:46:57 10° SSW 05:55:33 35° SE 06:04:18 10° ENE visible
26 Jan 9.5 05:22:10 10° S 05:30:28 32° SE 05:38:56 10° ENE visible
27 Jan 9.5 04:57:24 10° S 05:05:24 29° SE 05:13:32 10° ENE visible
28 Jan 9.6 04:32:42 10° S 04:40:19 26° SE 04:48:05 10° ENE visible
29 Jan 9.6 04:08:04 10° S 04:15:16 23° SE 04:22:35 10° ENE visible
30 Jan 9.6 03:43:31 10° S 03:50:13 21° SE 03:57:02 10° E visible
31 Jan 9.7 03:19:03 10° SSE 03:25:11 19° ESE 03:31:24 10° E visible
31 Jan 8.2 05:18:48 10° SW 05:28:29 63° SE 05:38:27 10° ENE visible
01 Feb 9.7 02:54:43 10° SSE 03:00:08 16° ESE 03:05:40 10° E visible
01 Feb 8.2 04:53:45 10° SW 05:03:20 59° SE 05:13:11 10° ENE visible
02 Feb 9.7 02:30:33 10° SSE 02:35:08 14° ESE 02:39:45 10° E visible
02 Feb 8.2 04:28:44 10° SSW 04:38:11 55° SE 04:47:56 10° ENE visible
